Regional Weather Roundup
Issued by NWS

Home | Current Version | Previous Version | Graphics & Text | Print | Product List | Glossary On
Versions: 1 2 3 4 5 6 7 8 9 10 11 12 13 14 15 16 17 18 19 20 21 22 23 24 25 26 27 28 29 30 31 32 33 34 35 36 37 38 39 40 41 42 43 44 45 46 47 48 49 50
000
ASUS43 KDMX 232007
RWRIA

WEATHER ROUNDUP FOR IOWA
NATIONAL WEATHER SERVICE DES MOINES IA
300 PM CDT SAT MAY 23 2015

NOTE: "FAIR" INDICATES FEW OR NO CLOUDS BELOW 12,000 FEET WITH NO
SIGNIFICANT WEATHER AND/OR OBSTRUCTIONS TO VISIBILITY.

* - THESE STATIONS ARE NOT NWS STATIONS...THUS NOT UNDER NWS
QUALITY CONTROL.  THEY ALSO DO NOT REPORT WEATHER SUCH
AS PRECIPITATION OR FOG.

IAZ001>003-012>014-020>022-031>034-043>046-232100-
   NORTHWEST IOWA

CITY           SKY/WX    TMP DP  RH WIND       PRES   REMARKS
CARROLL *      CLOUDY    68  50  52 S15       30.16S
CHEROKEE *     CLOUDY    68  50  52 SE13      30.14F
DENISON *      CLOUDY    66  54  63 SE14G21   30.14S
LE MARS *      CLOUDY    66  54  63 S9G20     30.14F
ORANGE CITY *  MOSUNNY   64  50  59 S7G17     30.14F
SHELDON *      PTSUNNY   70  48  46 SE15      30.13F
SIOUX CITY     CLOUDY    65  53  65 SE10      30.14F
SPENCER        CLOUDY    73  47  39 S16G25    30.14F
STORM LAKE *   CLOUDY    68  48  49 S17       30.16F
$$

IAZ055>058-069>071-079>083-090>094-232100-
   SOUTHWEST IOWA

CITY           SKY/WX    TMP DP  RH WIND       PRES   REMARKS
ATLANTIC *     CLOUDY    66  55  68 SE12G20   30.15F
AUDUBON *      CLOUDY    64  54  68 S7        30.17F
CLARINDA *     CLOUDY    68  57  68 SE12G17   30.16F
COUNCIL BLFS * CLOUDY    63  61  94 SE10G16   30.15F
CRESTON *      CLOUDY    68  57  68 SE13G22   30.16F
HARLAN  *      CLOUDY    64  61  88 SE12G17   30.18F
LAMONI         CLOUDY    71  56  58 SE14      30.18F
RED OAK *      CLOUDY    66  59  77 SE13      30.15F
SHENANDOAH *   CLOUDY    68  59  73 SE15      30.14F
$$

IAZ047>049-059>061-072>074-084-232100-
   CENTRAL IOWA

CITY           SKY/WX    TMP DP  RH WIND       PRES   REMARKS
AMES           PTSUNNY   70  48  45 S15G22    30.18F
ANKENY *       PTSUNNY   72  52  49 SE13G21   30.17F
CHARITON *     PTSUNNY   72  54  53 S14G21    30.19F
DES MOINES     PTSUNNY   73  49  42 SE16      30.17F
GRINNELL*      CLOUDY    72  48  43 SE18      30.20F
KNOXVILLE *    PTSUNNY   73  48  40 SE12      30.18F
MARSHALLTOWN   LGT RAIN  71  47  42 S18       30.18F
PELLA *        PTSUNNY   73  54  49 SE15      30.20F
PERRY *        CLOUDY    68  48  49 SE14G21   30.17S
$$

IAZ004>006-015-016-023>025-035-036-232100-
   NORTH CENTRAL IOWA

CITY           SKY/WX    TMP DP  RH WIND       PRES   REMARKS
ALGONA *       CLOUDY    72  48  43 S18G29    30.16F
CLARION *      PTSUNNY   72  46  40 S23G29    30.17F
ESTHERVILLE    CLOUDY    70  48  45 S20G28    30.15F
FORT DODGE *   CLOUDY    70  46  43 S12G20    30.18F
MASON CITY     PTSUNNY   75  46  35 S18G28    30.19F
FOREST CITY *  MOSUNNY   72  46  40 SE18      30.17F
IOWA FALLS *     N/A     73  46  38 SE16      30.19F
$$

IAZ007>011-017>019-026>030-037>042-050>054-066-232100-
   NORTHEAST IOWA

CITY           SKY/WX    TMP DP  RH WIND       PRES   REMARKS
CEDAR RAPIDS   CLOUDY    75  48  38 S13G23    30.21F
CHARLES CITY * MOSUNNY   77  41  27 S21       30.20S
CLINTON *      SUNNY     79  45  29 SW12G18   30.25F
DECORAH *      MOSUNNY   77  39  25 S12G18    30.20F
DUBUQUE        MOSUNNY   76  46  34 S13       30.23F
MONTICELLO *   SUNNY     77  45  31 VRB6G15   30.22F
OELWEIN *      SUNNY     75  43  31 S15G22    30.22S
WATERLOO       PTSUNNY   74  46  36 S16       30.19F
$$

IAZ064-065-067-068-078-232100-
   EAST CENTRAL IOWA

CITY           SKY/WX    TMP DP  RH WIND       PRES   REMARKS
DAVENPORT      MOSUNNY   80  46  30 S14       30.23F
IOWA CITY      PTSUNNY   75  49  39 S13       30.23F
MT. PLEASANT * PTSUNNY   79  41  25 S15       30.22F
MUSCATINE *    MOSUNNY   77  48  36 S9G17     30.22F
QUAD CITIES    MOSUNNY   79  48  33 S12       30.22F
$$

IAZ062-063-075>077-085>089-095>099-232100-
   SOUTHEAST IOWA

CITY           SKY/WX    TMP DP  RH WIND       PRES   REMARKS
BURLINGTON     MOSUNNY   77  47  34 S12G21    30.22F
FAIRFIELD *    SUNNY     77  48  36 S20       30.22F
FORT MADISON * SUNNY     75  46  35 S10G16    30.23F
KEOKUK *       PTSUNNY   73  48  40 S10       30.22F
OSKALOOSA *    PTSUNNY   77  43  29 S15G22    30.20F
CENTERVILLE *  SUNNY     72  72 100 S14       30.22S
OTTUMWA        PTSUNNY   77  47  34 S17       30.20F
WASHINGTON *   MOSUNNY   77  46  33 S14       30.23F
$$

ABBREVIATIONS USED IN REMARKS
   TC - TEMPERATURES IN CELSIUS
  WCI - WIND CHILL INDEX
   HX - HEAT INDEX
  VSB - VISIBILITY
$$



USA.gov is the U.S. government's official web portal to all federal, state and local government web resources and services.